TimePDT,TemperatureF,Dew PointF,Humidity,Sea Level PressureIn,VisibilityMPH,Wind Direction,Wind SpeedMPH,Gust SpeedMPH,PrecipitationIn,Events,Conditions,WindDirDegrees,DateUTC
12:53 AM,72.0,23.0,16,30.04,10.0,ENE,6.9,-,N/A,,Clear,60,2013-10-06 07:53:00
1:53 AM,66.0,32.0,28,30.05,10.0,Calm,Calm,-,N/A,,Clear,0,2013-10-06 08:53:00
2:53 AM,64.0,30.9,29,30.04,10.0,North,4.6,-,N/A,,Clear,350,2013-10-06 09:53:00
3:53 AM,61.0,34.0,36,30.04,10.0,Calm,Calm,-,N/A,,Clear,0,2013-10-06 10:53:00
4:53 AM,57.9,34.0,41,30.04,10.0,Calm,Calm,-,N/A,,Clear,0,2013-10-06 11:53:00
5:53 AM,57.0,37.0,47,30.04,10.0,Calm,Calm,-,N/A,,Clear,0,2013-10-06 12:53:00
6:53 AM,57.9,34.0,41,30.05,10.0,Calm,Calm,-,N/A,,Clear,0,2013-10-06 13:53:00
7:53 AM,63.0,32.0,31,30.06,10.0,NW,3.5,-,N/A,,Clear,310,2013-10-06 14:53:00
8:53 AM,72.0,30.9,22,30.07,10.0,Calm,Calm,-,N/A,,Clear,0,2013-10-06 15:53:00
9:53 AM,82.9,32.0,16,30.06,10.0,WNW,3.5,-,N/A,,Clear,290,2013-10-06 16:53:00
10:53 AM,87.1,18.0,8,30.06,10.0,NNW,3.5,-,N/A,,Clear,340,2013-10-06 17:53:00
11:53 AM,89.1,19.0,8,30.04,10.0,NNW,3.5,-,N/A,,Clear,340,2013-10-06 18:53:00
12:53 PM,91.0,17.1,7,30.01,10.0,WNW,5.8,-,N/A,,Clear,300,2013-10-06 19:53:00
1:53 PM,93.9,14.0,5,29.98,10.0,West,5.8,-,N/A,,Clear,280,2013-10-06 20:53:00
2:53 PM,93.9,14.0,5,29.96,10.0,Variable,5.8,-,N/A,,Clear,0,2013-10-06 21:53:00
3:53 PM,93.0,15.1,6,29.95,10.0,West,6.9,-,N/A,,Clear,260,2013-10-06 22:53:00
4:53 PM,93.0,16.0,6,29.94,10.0,West,6.9,-,N/A,,Clear,280,2013-10-06 23:53:00
5:53 PM,87.1,28.9,12,29.94,10.0,WNW,6.9,-,N/A,,Clear,300,2013-10-07 00:53:00
6:53 PM,80.1,27.0,14,29.95,10.0,West,5.8,-,N/A,,Clear,280,2013-10-07 01:53:00
7:53 PM,75.9,28.0,17,29.96,10.0,Calm,Calm,-,N/A,,Clear,0,2013-10-07 02:53:00
8:53 PM,72.0,33.1,24,29.96,10.0,Calm,Calm,-,N/A,,Clear,0,2013-10-07 03:53:00
9:53 PM,69.1,39.0,33,29.96,10.0,Calm,Calm,-,N/A,,Clear,0,2013-10-07 04:53:00
10:53 PM,68.0,37.0,32,29.96,10.0,Calm,Calm,-,N/A,,Clear,0,2013-10-07 05:53:00
11:53 PM,66.9,37.0,33,29.95,10.0,Calm,Calm,-,N/A,,Clear,0,2013-10-07 06:53:00